C/2006 B1 ( McNaught )

Japanese version
Home page
Updated on September 23, 2007

---------------------------------------------------------------------

* Profile

Discovery Date January 27, 2006
Magnitude 18.3 mag
Discoverer R. H. McNaught (Siding Spring Survey)

* Orbital Elements

Epoch 2005 Nov. 6.0 TT = JDT 2453680.5
T 2005 Nov. 19.51882 TT                                 MPC
q   2.9975416            (2000.0)            P               Q
z  +0.0007658      Peri.  302.48649     -0.69804960     -0.67799760
 +/-0.0000459      Node   161.23149     -0.11292711     +0.42186279
e   0.9977045      Incl.  134.28818     -0.70708856     +0.60195601

* Magnitudes Graph

        m1 = 12.8 + 5 log d + 5.0 log r(t - 250)

---------------------------------------------------------------------

The orbital elements are published on M.P.E.C. 2006-G45.
The magnitudes graphs are made with Comet for Windows.

---------------------------------------------------------------------

Copyright(C) Seiichi Yoshida (comet@aerith.net). All rights reserved.